Regional Weather Roundup
Issued by NWS

Home | Current Version | Previous Version | Text Only | Print | Product List | Glossary On
Versions: 1 2 3 4 5 6 7 8 9 10 11 12 13 14 15 16 17 18 19 20 21 22 23 24 25 26 27 28 29 30 31 32 33 34 35 36 37 38 39 40 41 42 43 44 45 46 47 48 49 50
175
ASUS44 KJAN 291210
RWRMS

MISSISSIPPI HOURLY WEATHER ROUNDUP
NATIONAL WEATHER SERVICE JACKSON MS
600 AM CST THU JAN 29 2015

NOTE: "FAIR: INDICATES FEW OR NO CLOUDS BELOW 12,000 FEET WITH NO
SIGNIFICANT WEATHER AND/OR OBSTRUCTIONS TO VISIBILITY.

MSZ001>002-007>008-010>013-018>021-025>028-034>036-291300-
NORTHWEST MISSISSIPPI

CITY           SKY/WX    TMP DP  RH WIND       PRES   REMARKS
CLARKSDALE     FAIR      54  45  71 S13       30.06F
CLEVELAND      FAIR      51  47  86 S13       30.08F
GREENWOOD      CLOUDY    54  38  54 SW12      30.13R
6HR MIN TEMP:  50; 6HR MAX TEMP:  55;

GREENVILLE     MOCLDY    53  45  74 S14       30.09R
6HR MIN TEMP:  47; 6HR MAX TEMP:  56;

GRENADA        FAIR      55  37  50 SW7       30.12R
OLIVE BRANCH   PTCLDY    54  43  66 S18G25    30.04R
OXFORD         FAIR      50  39  66 S7        30.10S
TUNICA         CLOUDY    52  43  71 S12       30.06S
$$

MSZ003>006-009-014>017-022>024-029>033-037>039-291300-
NORTHEAST MISSISSIPPI

CITY           SKY/WX    TMP DP  RH WIND       PRES   REMARKS
COLUMBUS AFB   CLOUDY    47  31  55 S9        30.16F
6HR MIN TEMP:  37; 6HR MAX TEMP:  47; 6HR PCP: TRACE;

CORINTH        PTSUNNY   50  34  53 S14       30.06F
GOLDN TRIANGLE MOCLDY    45  32  61 S16       30.15F
STARKVILLE     FAIR      43  34  70 S6        30.15S
TUPELO         CLOUDY    46  34  62 S9        30.13R
6HR MIN TEMP:  43; 6HR MAX TEMP:  47;

$$

MSZ040-058-291300-
CENTRAL MISSISSIPPI

CITY           SKY/WX    TMP DP  RH WIND       PRES   REMARKS
JACKSON INTL   CLEAR     47  42  83 S10       30.17F
6HR MIN TEMP:  44; 6HR MAX TEMP:  50;

JACKSON HAWKNS NOT AVBL
MERIDIAN KEY   CLEAR     39  34  82 S6        30.24R WCI  35
6HR MIN TEMP:  38; 6HR MAX TEMP:  44;

MERIDIAN NAS   PTCLDY    40  33  76 SE7       30.23R
6HR MIN TEMP:  36; 6HR MAX TEMP:  45;

RAYMOND        FAIR      48  45  87 MISG      30.17S
VICKSBURG      PTCLDY    51  43  74 S5        30.16S
6HR MIN TEMP:  47; 6HR MAX TEMP:  54;

$$

MSZ059>079-291300-
SOUTH MISSISSIPPI

CITY           SKY/WX    TMP DP  RH WIND       PRES   REMARKS
BROOKHAVEN       N/A     46  46 100 S3        30.21S
HATTIESBURG    CLEAR     36  34  92 SE3       30.24S
6HR MIN TEMP:  36; 6HR MAX TEMP:  44;

MCCOMB         CLEAR     46  43  89 CALM      30.21R FOG
6HR MIN TEMP:  37; 6HR MAX TEMP:  48;

NATCHEZ        CLEAR     52  45  76 S7        30.18S
6HR MIN TEMP:  48; 6HR MAX TEMP:  54;

PINE BELT      CLEAR     37  34  87 S6        30.22F WCI  33
6HR MIN TEMP:  36; 6HR MAX TEMP:  48;

$$

MSZ080>082-291300-
COASTAL MISSISSIPPI

CITY           SKY/WX    TMP DP  RH WIND       PRES   REMARKS
BILOXI         CLEAR     45  45 100 CALM      30.25S FOG
PASCAGOULA     CLEAR     37  36  96 CALM      30.27R
6HR MIN TEMP:  36; 6HR MAX TEMP:  40;

GULFPORT       CLEAR     40  38  93 CALM      30.25R
6HR MIN TEMP:  39; 6HR MAX TEMP:  43;

$$



USA.gov is the U.S. government's official web portal to all federal, state and local government web resources and services.